Location: Ciserano
(45.5833°N, 9.6000°E)
Time: 23:56:01
(UTC+00:00)

FALCON 9 DEB - Pass Details

Date: 17 June 2021
Orbit: 364 x 377 km, 53.0° (Epoch: 26 July)

Event Time Altitude Azimuth Distance (km) Brightness Sun altitude
Rises 02:24:56 0° 302° (WNW) 2,271 6.7 -9.6°
Reaches altitude 10° 02:27:08 10° 313° (NW) 1,414 5.7 -9.3°
Maximum altitude 02:30:01 31° 19° (NNE) 697 4.9 -9.0°
Drops below altitude 10° 02:32:52 10° 85° (E) 1,403 6.5 -8.6°
Sets 02:35:03 0° 95° (E) 2,251 7.4 -8.4°
